Retour au catalogue

FENGYUN 1C DEB

LostSSO
NORAD 32220·DEBRIS·🇨🇳 China

Lancé May 10, 1999 depuis Taiyuan Satellite Launch Center

Loading…

Prochains Passages (prochaines 24 heures)

TLE

PériméSource: Space-Track

Époque: Nov 17, 2014, 00:57 UTC

1 32220U 99025CVS 14321.03979087  .00001588  00000-0  10801-2 0  9992
2 32220  99.2673 257.6674 0228324  31.3800 330.0753 13.89663064369803

Suivez FENGYUN 1C DEB en temps réel avec AllMySat

Download on the App Store